Change the Weather History Date:

Friday, December 21, 2012

  Actual Average Record
Temperature  
Mean Temperature 12 °F -  
Max Temperature 19 °F 24 °F 39 °F (2001)
Min Temperature 6 °F 10 °F -9 °F (1999)
Degree Days  
Heating Degree Days 52    
Moisture  
Dew Point 7 °F    
Average Humidity 80    
Maximum Humidity 92    
Minimum Humidity 73    
Precipitation  
Precipitation 0.00 in - - ()
Sea Level Pressure  
Sea Level Pressure 30.20 in    
Wind  
Wind Speed 11 mph (NW)    
Max Wind Speed 18 mph    
Max Gust Speed 28 mph    
Visibility 10 miles    
Events Snow    
Averages and records for this station are not official NWS values.
T = Trace of Precipitation, MM = Missing Value Source: NWS Daily Summary

Daily Weather History Graph

Daily Weather History Graph

Search for Another Location

Airport or City:

Trip Planner

Search our weather history database for the weather conditions in past years. The results will help you decide how hot, cold, wet, or windy it might be!

Date:

Astronomy

Dec. 21, 2012 Rise Set
Actual Time 7:45 AM CST 4:45 PM CST
Civil Twilight 7:13 AM CST 5:17 PM CST
Nautical Twilight 6:37 AM CST 5:53 PM CST
Astronomical Twilight 6:02 AM CST 6:28 PM CST
Moon 12:38 PM CST (12/21) 1:26 AM CST (12/21)
Length of Visible Light 10h 04m
Length of Day
8h 59m
Waxing Gibbous, 65% of the Moon is Illuminated
Dec 21
Waxing Gibbous
Dec 28
Full
Jan 4
Last Quarter
Jan 11
New
Jan 18
First Quarter

Hourly Weather History & Observations

Time (CST) Temp. Windchill Dew Point Humidity Pressure Visibility Wind Dir Wind Speed Gust Speed Precip Events Conditions
12:15 AM 8.6 °F -9.5 °F 5.0 °F 85% 30.07 in 10.0 mi NNW 17.3 mph 25.3 mph N/A Snow Light Snow
12:35 AM 8.6 °F -10.0 °F 3.2 °F 79% 30.08 in 10.0 mi NNW 18.4 mph 27.6 mph N/A Snow Light Snow
12:55 AM 8.6 °F -9.5 °F 3.2 °F 79% 30.09 in 10.0 mi NW 17.3 mph 26.5 mph N/A Snow Light Snow
1:15 AM 8.6 °F -8.9 °F 3.2 °F 79% 30.09 in 10.0 mi NNW 16.1 mph 25.3 mph N/A Snow Light Snow
1:35 AM 8.6 °F -8.9 °F 3.2 °F 79% 30.10 in 10.0 mi NNW 16.1 mph - N/A   Clear
1:55 AM 8.6 °F -8.3 °F 3.2 °F 79% 30.11 in 10.0 mi NNW 15.0 mph 20.7 mph N/A   Clear
2:15 AM 8.6 °F -7.7 °F 3.2 °F 79% 30.11 in 10.0 mi NNW 13.8 mph - N/A   Clear
2:35 AM 8.6 °F -7.7 °F 3.2 °F 79% 30.12 in 10.0 mi NNW 13.8 mph - N/A   Clear
2:55 AM 8.6 °F -8.3 °F 3.2 °F 79% 30.13 in 10.0 mi NNW 15.0 mph - N/A   Clear
3:15 AM 8.6 °F -6.3 °F 3.2 °F 79% 30.13 in 10.0 mi NNW 11.5 mph 17.3 mph N/A   Clear
3:35 AM 8.6 °F -7.7 °F 3.2 °F 79% 30.13 in 10.0 mi NNW 13.8 mph - N/A   Clear
3:55 AM 8.6 °F -7.0 °F 3.2 °F 79% 30.14 in 10.0 mi NW 12.7 mph - N/A   Clear
4:15 AM 6.8 °F -10.0 °F 3.2 °F 85% 30.14 in 10.0 mi NNW 13.8 mph - N/A   Clear
4:35 AM 6.8 °F -9.3 °F 1.4 °F 79% 30.15 in 10.0 mi NW 12.7 mph - N/A   Clear
4:55 AM 6.8 °F -7.8 °F 1.4 °F 79% 30.16 in 10.0 mi NW 10.4 mph 17.3 mph N/A   Clear
5:15 AM 6.8 °F -8.6 °F 1.4 °F 79% 30.17 in 10.0 mi NNW 11.5 mph 18.4 mph N/A   Clear
5:35 AM 6.8 °F -7.8 °F 1.4 °F 79% 30.18 in 10.0 mi NNW 10.4 mph - N/A   Clear
6:15 AM 6.8 °F -8.6 °F 1.4 °F 79% 30.19 in 10.0 mi NNW 11.5 mph - N/A   Clear
6:35 AM 6.8 °F -7.8 °F 1.4 °F 79% 30.20 in 10.0 mi NNW 10.4 mph - N/A   Clear
6:55 AM 6.8 °F -6.9 °F 1.4 °F 79% 30.21 in 10.0 mi NNW 9.2 mph - N/A   Clear
7:15 AM 6.8 °F -7.8 °F 1.4 °F 79% 30.21 in 10.0 mi NNW 10.4 mph - N/A   Clear
7:35 AM 6.8 °F -7.8 °F 1.4 °F 79% 30.22 in 10.0 mi NNW 10.4 mph - N/A   Clear
7:55 AM 6.8 °F -7.8 °F 1.4 °F 79% 30.22 in 10.0 mi North 10.4 mph - N/A   Clear
8:15 AM 6.8 °F -5.9 °F 1.4 °F 79% 30.23 in 10.0 mi NNW 8.1 mph - N/A   Clear
8:35 AM 6.8 °F -6.9 °F 1.4 °F 79% 30.23 in 10.0 mi NNW 9.2 mph - N/A   Clear
8:55 AM 6.8 °F -6.9 °F 1.4 °F 79% 30.24 in 10.0 mi North 9.2 mph - N/A   Clear
9:15 AM 8.6 °F -4.7 °F 3.2 °F 79% 30.24 in 10.0 mi NNW 9.2 mph - N/A   Clear
9:35 AM 8.6 °F -3.7 °F 3.2 °F 79% 30.25 in 10.0 mi NW 8.1 mph 13.8 mph N/A   Clear
9:55 AM 10.4 °F -3.3 °F 5.0 °F 79% 30.26 in 10.0 mi NNW 10.4 mph - N/A   Clear
10:15 AM 10.4 °F -1.5 °F 5.0 °F 79% 30.27 in 10.0 mi NNW 8.1 mph - N/A   Clear
10:35 AM 12.2 °F 0.7 °F 6.8 °F 79% 30.26 in 10.0 mi NNW 8.1 mph - N/A   Clear
10:55 AM 12.2 °F -0.2 °F 6.8 °F 79% 30.25 in 10.0 mi North 9.2 mph 15.0 mph N/A   Clear
11:15 AM 14.0 °F 3.9 °F 6.8 °F 73% 30.25 in 10.0 mi North 6.9 mph - N/A   Clear
11:35 AM 14.0 °F 2.0 °F 8.6 °F 79% 30.24 in 10.0 mi North 9.2 mph - N/A   Clear
11:55 AM 14.0 °F 2.0 °F 8.6 °F 79% 30.24 in 10.0 mi North 9.2 mph - N/A   Clear
12:15 PM 15.8 °F 6.1 °F 8.6 °F 73% 30.24 in 10.0 mi North 6.9 mph - N/A   Clear
12:35 PM 15.8 °F 5.1 °F 10.4 °F 79% 30.24 in 10.0 mi North 8.1 mph - N/A   Clear
12:55 PM 15.8 °F 7.2 °F 10.4 °F 79% 30.23 in 10.0 mi North 5.8 mph - N/A   Clear
1:15 PM 15.8 °F 7.2 °F 10.4 °F 79% 30.23 in 10.0 mi NNW 5.8 mph - N/A   Clear
1:35 PM 17.6 °F 8.2 °F 12.2 °F 79% 30.24 in 10.0 mi WNW 6.9 mph - N/A   Clear
1:55 PM 17.6 °F 8.2 °F 12.2 °F 79% 30.24 in 10.0 mi NW 6.9 mph - N/A   Clear
2:15 PM 19.4 °F 12.8 °F 12.2 °F 74% 30.23 in 10.0 mi NNW 4.6 mph - N/A   Clear
2:35 PM 19.4 °F 11.5 °F 12.2 °F 74% 30.23 in 10.0 mi NNW 5.8 mph - N/A   Clear
2:55 PM 19.4 °F 10.4 °F 12.2 °F 74% 30.24 in 10.0 mi West 6.9 mph - N/A   Clear
3:15 PM 19.4 °F 12.8 °F 12.2 °F 74% 30.23 in 10.0 mi West 4.6 mph - N/A   Clear
3:35 PM 19.4 °F 14.3 °F 12.2 °F 74% 30.23 in 10.0 mi WNW 3.5 mph - N/A   Clear
3:55 PM 19.4 °F - 12.2 °F 74% 30.24 in 10.0 mi Calm Calm - N/A   Clear
4:15 PM 19.4 °F - 12.2 °F 74% 30.24 in 10.0 mi Calm Calm - N/A   Clear
4:35 PM 19.4 °F - 12.2 °F 74% 30.24 in 10.0 mi Calm Calm - N/A   Clear
4:55 PM 17.6 °F - 12.2 °F 79% 30.24 in 10.0 mi Calm Calm - N/A   Clear
5:15 PM 17.6 °F - 12.2 °F 79% 30.23 in 10.0 mi Calm Calm - N/A   Clear
5:35 PM 17.6 °F 12.3 °F 12.2 °F 79% 30.23 in 10.0 mi ESE 3.5 mph - N/A   Clear
5:55 PM 17.6 °F - 12.2 °F 79% 30.23 in 10.0 mi Calm Calm - N/A   Clear
6:15 PM 14.0 °F 8.2 °F 10.4 °F 86% 30.22 in 10.0 mi SSE 3.5 mph - N/A   Clear
6:35 PM 14.0 °F 2.9 °F 10.4 °F 86% 30.23 in 10.0 mi SSW 8.1 mph - N/A   Clear
6:55 PM 14.0 °F 3.9 °F 10.4 °F 86% 30.22 in 10.0 mi SSW 6.9 mph - N/A   Clear
7:15 PM 14.0 °F 5.1 °F 10.4 °F 86% 30.22 in 10.0 mi South 5.8 mph - N/A   Clear
7:35 PM 12.2 °F 1.7 °F 10.4 °F 92% 30.21 in 10.0 mi South 6.9 mph - N/A   Clear
7:55 PM 12.2 °F 1.7 °F 10.4 °F 92% 30.21 in 10.0 mi SSW 6.9 mph - N/A   Clear
8:15 PM 14.0 °F 5.1 °F 10.4 °F 86% 30.21 in 10.0 mi South 5.8 mph - N/A   Clear
8:35 PM 14.0 °F 2.0 °F 10.4 °F 86% 30.21 in 10.0 mi South 9.2 mph - N/A   Clear
8:55 PM 14.0 °F 2.9 °F 10.4 °F 86% 30.20 in 10.0 mi South 8.1 mph - N/A   Clear
9:15 PM 14.0 °F 2.0 °F 10.4 °F 86% 30.21 in 10.0 mi South 9.2 mph - N/A   Clear
9:35 PM 14.0 °F 2.9 °F 10.4 °F 86% 30.20 in 10.0 mi South 8.1 mph - N/A   Clear
9:55 PM 14.0 °F 2.0 °F 10.4 °F 86% 30.19 in 10.0 mi South 9.2 mph - N/A   Clear
10:15 PM 12.2 °F 0.7 °F 8.6 °F 85% 30.19 in 10.0 mi South 8.1 mph - N/A   Clear
10:35 PM 14.0 °F 0.5 °F 8.6 °F 79% 30.18 in 10.0 mi South 11.5 mph - N/A   Clear
10:55 PM 12.2 °F -0.2 °F 8.6 °F 85% 30.18 in 10.0 mi South 9.2 mph - N/A   Clear
11:15 PM 14.0 °F 1.2 °F 8.6 °F 79% 30.17 in 10.0 mi South 10.4 mph - N/A   Clear
11:35 PM 14.0 °F 2.9 °F 10.4 °F 86% 30.17 in 10.0 mi South 8.1 mph - N/A   Clear
11:55 PM 12.2 °F 0.7 °F 8.6 °F 85% 30.17 in 10.0 mi South 8.1 mph - N/A   Clear